Time,TemperatureF,DewpointF,PressureIn,WindDirection,WindDirectionDegrees,WindSpeedMPH,WindSpeedGustMPH,Humidity,HourlyPrecipIn,Conditions,Clouds,dailyrainin,SoftwareType,DateUTC
2013-03-18 00:07:00,45.2,39.0,30.10,East,83,3.0,-999.0,79,-99.99,,,0.00,weatherlink.com 1.10,2013-03-18 04:07:00,
2013-03-18 00:22:00,45.0,39.0,30.11,NNE,28,2.0,-999.0,79,-99.99,,,0.00,weatherlink.com 1.10,2013-03-18 04:22:00,
2013-03-18 00:37:00,44.8,39.0,30.11,NNE,24,3.0,-999.0,80,-99.99,,,0.00,weatherlink.com 1.10,2013-03-18 04:37:00,
2013-03-18 00:52:00,44.5,39.0,30.10,North,360,3.0,-999.0,80,-99.99,,,0.00,weatherlink.com 1.10,2013-03-18 04:52:00,
2013-03-18 01:07:00,44.3,39.0,30.10,North,5,4.0,-999.0,81,-99.99,,,0.00,weatherlink.com 1.10,2013-03-18 05:07:00,
2013-03-18 01:22:00,44.1,39.0,30.11,North,355,4.0,-999.0,81,-99.99,,,0.00,weatherlink.com 1.10,2013-03-18 05:22:00,
2013-03-18 01:37:00,43.8,39.0,30.11,NE,42,0.0,-999.0,82,-99.99,,,0.00,weatherlink.com 1.10,2013-03-18 05:37:00,
2013-03-18 01:53:00,43.6,39.0,30.12,ENE,62,1.0,-999.0,83,-99.99,,,0.00,weatherlink.com 1.10,2013-03-18 05:53:00,
2013-03-18 02:08:00,43.3,39.0,30.11,NNW,339,2.0,-999.0,83,-99.99,,,0.00,weatherlink.com 1.10,2013-03-18 06:08:00,
2013-03-18 02:23:00,43.2,39.0,30.11,NE,51,1.0,-999.0,84,-99.99,,,0.00,weatherlink.com 1.10,2013-03-18 06:23:00,
2013-03-18 02:38:00,43.1,39.0,30.11,North,360,2.0,-999.0,84,-99.99,,,0.00,weatherlink.com 1.10,2013-03-18 06:38:00,
2013-03-18 02:53:00,42.9,38.0,30.11,NW,309,5.0,-999.0,84,-99.99,,,0.00,weatherlink.com 1.10,2013-03-18 06:53:00,
2013-03-18 03:08:00,42.7,39.0,30.11,NNW,340,0.0,-999.0,85,-99.99,,,0.00,weatherlink.com 1.10,2013-03-18 07:08:00,
2013-03-18 03:23:00,42.4,38.0,30.11,North,5,1.0,-999.0,85,-99.99,,,0.00,weatherlink.com 1.10,2013-03-18 07:23:00,
2013-03-18 03:38:00,42.2,38.0,30.11,ENE,60,0.0,-999.0,86,-99.99,,,0.00,weatherlink.com 1.10,2013-03-18 07:38:00,
2013-03-18 03:53:00,41.8,38.0,30.12,North,5,3.0,-999.0,86,-99.99,,,0.00,weatherlink.com 1.10,2013-03-18 07:53:00,
2013-03-18 04:08:00,41.5,38.0,30.11,NE,44,4.0,-999.0,86,-99.99,,,0.00,weatherlink.com 1.10,2013-03-18 08:08:00,
2013-03-18 04:23:00,41.3,38.0,30.11,NE,46,3.0,-999.0,87,-99.99,,,0.00,weatherlink.com 1.10,2013-03-18 08:23:00,
2013-03-18 04:38:00,41.3,38.0,30.12,NNE,28,5.0,-999.0,87,-99.99,,,0.00,weatherlink.com 1.10,2013-03-18 08:38:00,
2013-03-18 04:54:00,40.9,37.0,30.11,NE,55,2.0,-999.0,87,-99.99,,,0.00,weatherlink.com 1.10,2013-03-18 08:54:00,
2013-03-18 05:09:00,40.8,37.0,30.11,NE,40,2.0,-999.0,87,-99.99,,,0.00,weatherlink.com 1.10,2013-03-18 09:09:00,
2013-03-18 05:24:00,40.6,37.0,30.12,NE,36,1.0,-999.0,87,-99.99,,,0.00,weatherlink.com 1.10,2013-03-18 09:24:00,
2013-03-18 05:39:00,40.4,37.0,30.13,NE,44,1.0,-999.0,87,-99.99,,,0.00,weatherlink.com 1.10,2013-03-18 09:39:00,
2013-03-18 05:54:00,40.2,37.0,30.13,NE,49,3.0,-999.0,87,-99.99,,,0.00,weatherlink.com 1.10,2013-03-18 09:54:00,
2013-03-18 06:09:00,40.3,37.0,30.13,NNE,17,2.0,-999.0,88,-99.99,,,0.00,weatherlink.com 1.10,2013-03-18 10:09:00,
2013-03-18 06:24:00,40.2,37.0,30.13,North,5,3.0,-999.0,88,-99.99,,,0.00,weatherlink.com 1.10,2013-03-18 10:24:00,
2013-03-18 06:39:00,40.1,37.0,30.14,NNW,335,0.0,-999.0,88,-99.99,,,0.00,weatherlink.com 1.10,2013-03-18 10:39:00,
2013-03-18 06:54:00,40.0,37.0,30.13,NE,41,1.0,-999.0,88,-99.99,,,0.00,weatherlink.com 1.10,2013-03-18 10:54:00,
2013-03-18 07:09:00,39.8,37.0,30.13,NE,56,1.0,-999.0,89,-99.99,,,0.00,weatherlink.com 1.10,2013-03-18 11:09:00,
2013-03-18 07:24:00,39.8,37.0,30.13,NNE,24,0.0,-999.0,89,-99.99,,,0.00,weatherlink.com 1.10,2013-03-18 11:24:00,
2013-03-18 07:39:00,39.8,37.0,30.14,NNE,25,3.0,-999.0,90,-99.99,,,0.00,weatherlink.com 1.10,2013-03-18 11:39:00,
2013-03-18 07:55:00,39.9,37.0,30.13,NNE,27,0.0,-999.0,90,-99.99,,,0.00,weatherlink.com 1.10,2013-03-18 11:55:00,
2013-03-18 08:10:00,39.9,37.0,30.15,North,10,1.0,-999.0,90,-99.99,,,0.00,weatherlink.com 1.10,2013-03-18 12:10:00,
2013-03-18 08:25:00,40.0,37.0,30.15,NNE,21,2.0,-999.0,90,-99.99,,,0.00,weatherlink.com 1.10,2013-03-18 12:25:00,
2013-03-18 08:40:00,39.9,37.0,30.15,NNE,20,2.0,-999.0,90,-99.99,,,0.00,weatherlink.com 1.10,2013-03-18 12:40:00,
2013-03-18 08:55:00,39.9,37.0,30.15,NW,312,0.0,-999.0,90,-99.99,,,0.00,weatherlink.com 1.10,2013-03-18 12:55:00,
2013-03-18 09:10:00,39.9,37.0,30.14,NNE,17,1.0,-999.0,90,-99.99,,,0.00,weatherlink.com 1.10,2013-03-18 13:10:00,
2013-03-18 09:25:00,40.0,38.0,30.14,NNW,348,2.0,-999.0,91,-99.99,,,0.00,weatherlink.com 1.10,2013-03-18 13:25:00,
2013-03-18 09:40:00,40.0,38.0,30.13,NNW,343,0.0,-999.0,91,-99.99,,,0.00,weatherlink.com 1.10,2013-03-18 13:40:00,
2013-03-18 09:55:00,40.1,38.0,30.12,NNW,344,0.0,-999.0,91,-99.99,,,0.00,weatherlink.com 1.10,2013-03-18 13:55:00,
2013-03-18 10:10:00,40.3,38.0,30.13,North,360,2.0,-999.0,91,-99.99,,,0.00,weatherlink.com 1.10,2013-03-18 14:10:00,
2013-03-18 10:25:00,40.5,38.0,30.13,NNE,17,3.0,-999.0,90,-99.99,,,0.00,weatherlink.com 1.10,2013-03-18 14:25:00,
2013-03-18 10:40:00,40.6,38.0,30.12,North,5,2.0,-999.0,90,-99.99,,,0.00,weatherlink.com 1.10,2013-03-18 14:40:00,
2013-03-18 10:56:00,40.7,38.0,30.14,NNW,328,2.0,-999.0,90,-99.99,,,0.00,weatherlink.com 1.10,2013-03-18 14:56:00,
2013-03-18 11:11:00,40.7,38.0,30.14,NE,42,2.0,-999.0,90,-99.99,,,0.00,weatherlink.com 1.10,2013-03-18 15:11:00,
2013-03-18 11:56:00,41.0,39.0,30.12,North,10,1.0,-999.0,91,-99.99,,,0.00,weatherlink.com 1.10,2013-03-18 15:56:00,
2013-03-18 12:11:00,41.3,39.0,30.11,North,11,0.0,-999.0,91,-99.99,,,0.00,weatherlink.com 1.10,2013-03-18 16:11:00,
2013-03-18 12:26:00,41.3,39.0,30.11,NE,46,1.0,-999.0,91,-99.99,,,0.01,weatherlink.com 1.10,2013-03-18 16:26:00,
2013-03-18 12:56:00,42.2,40.0,30.08,East,88,3.0,-999.0,91,-99.99,,,0.01,weatherlink.com 1.10,2013-03-18 16:56:00,
2013-03-18 13:11:00,42.2,40.0,30.08,NE,44,0.0,-999.0,90,-99.99,,,0.01,weatherlink.com 1.10,2013-03-18 17:11:00,
2013-03-18 13:26:00,42.3,40.0,30.09,ENE,63,1.0,-999.0,90,-99.99,,,0.01,weatherlink.com 1.10,2013-03-18 17:26:00,
2013-03-18 13:41:00,42.2,40.0,30.07,North,5,0.0,-999.0,90,-99.99,,,0.01,weatherlink.com 1.10,2013-03-18 17:41:00,
2013-03-18 13:57:00,42.2,39.0,30.06,NNW,348,3.0,-999.0,89,-99.99,,,0.01,weatherlink.com 1.10,2013-03-18 17:57:00,
2013-03-18 14:12:00,41.9,39.0,30.05,NE,53,0.0,-999.0,89,-99.99,,,0.01,weatherlink.com 1.10,2013-03-18 18:12:00,
2013-03-18 14:42:00,42.2,39.0,30.03,North,355,0.0,-999.0,89,-99.99,,,0.01,weatherlink.com 1.10,2013-03-18 18:42:00,
2013-03-18 14:57:00,42.1,39.0,30.03,North,360,0.0,-999.0,90,-99.99,,,0.01,weatherlink.com 1.10,2013-03-18 18:57:00,
2013-03-18 15:14:00,41.9,39.0,30.02,North,351,3.0,-999.0,90,-99.99,,,0.01,weatherlink.com 1.10,2013-03-18 19:14:00,
2013-03-18 15:27:00,41.8,39.0,30.02,NW,316,0.0,-999.0,90,-99.99,,,0.01,weatherlink.com 1.10,2013-03-18 19:27:00,
2013-03-18 15:42:00,41.7,39.0,30.00,NE,37,3.0,-999.0,90,-99.99,,,0.01,weatherlink.com 1.10,2013-03-18 19:42:00,
2013-03-18 15:57:00,41.8,39.0,30.01,NNE,17,1.0,-999.0,91,-99.99,,,0.01,weatherlink.com 1.10,2013-03-18 19:57:00,
2013-03-18 16:12:00,41.7,39.0,30.01,NW,317,0.0,-999.0,91,-99.99,,,0.01,weatherlink.com 1.10,2013-03-18 20:12:00,
2013-03-18 16:27:00,41.9,40.0,30.00,NW,319,1.0,-999.0,91,-99.99,,,0.01,weatherlink.com 1.10,2013-03-18 20:27:00,
2013-03-18 16:42:00,42.0,40.0,30.00,ENE,71,2.0,-999.0,91,-99.99,,,0.01,weatherlink.com 1.10,2013-03-18 20:42:00,
2013-03-18 16:58:00,41.9,40.0,29.98,NW,319,0.0,-999.0,91,-99.99,,,0.02,weatherlink.com 1.10,2013-03-18 20:58:00,
2013-03-18 17:13:00,41.9,40.0,29.97,East,86,0.0,-999.0,91,-99.99,,,0.02,weatherlink.com 1.10,2013-03-18 21:13:00,
2013-03-18 17:28:00,41.8,39.0,29.99,West,269,0.0,-999.0,91,-99.99,,,0.02,weatherlink.com 1.10,2013-03-18 21:28:00,
2013-03-18 17:43:00,41.7,39.0,29.97,ENE,62,0.0,-999.0,91,-99.99,,,0.02,weatherlink.com 1.10,2013-03-18 21:43:00,
2013-03-18 17:58:00,41.5,39.0,29.98,NNE,33,0.0,-999.0,91,-99.99,,,0.02,weatherlink.com 1.10,2013-03-18 21:58:00,
2013-03-18 18:13:00,41.5,39.0,30.02,NW,315,0.0,-999.0,91,-99.99,,,0.03,weatherlink.com 1.10,2013-03-18 22:13:00,
2013-03-18 18:28:00,41.3,39.0,30.01,West,281,1.0,-999.0,91,-99.99,,,0.08,weatherlink.com 1.10,2013-03-18 22:28:00,
2013-03-18 18:43:00,41.1,39.0,30.02,NE,43,2.0,-999.0,91,-99.99,,,0.11,weatherlink.com 1.10,2013-03-18 22:43:00,
2013-03-18 18:58:00,40.9,39.0,30.02,NNW,329,0.0,-999.0,91,-99.99,,,0.13,weatherlink.com 1.10,2013-03-18 22:58:00,
2013-03-18 19:13:00,40.9,39.0,30.01,North,5,1.0,-999.0,91,-99.99,,,0.15,weatherlink.com 1.10,2013-03-18 23:13:00,
2013-03-18 19:28:00,40.6,38.0,30.00,ESE,122,0.0,-999.0,91,-99.99,,,0.22,weatherlink.com 1.10,2013-03-18 23:28:00,
2013-03-18 19:43:00,40.6,38.0,30.01,SE,134,1.0,-999.0,91,-99.99,,,0.28,weatherlink.com 1.10,2013-03-18 23:43:00,
2013-03-18 19:58:00,40.6,38.0,30.02,NW,325,0.0,-999.0,91,-99.99,,,0.32,weatherlink.com 1.10,2013-03-18 23:58:00,
2013-03-18 20:14:00,40.6,39.0,30.00,North,350,0.0,-999.0,92,-99.99,,,0.33,weatherlink.com 1.10,2013-03-19 00:14:00,
2013-03-18 20:29:00,40.6,39.0,30.00,ENE,71,0.0,-999.0,92,-99.99,,,0.34,weatherlink.com 1.10,2013-03-19 00:29:00,
2013-03-18 20:44:00,40.6,39.0,30.01,ENE,64,0.0,-999.0,92,-99.99,,,0.36,weatherlink.com 1.10,2013-03-19 00:44:00,
2013-03-18 20:59:00,40.6,39.0,29.99,ENE,64,0.0,-999.0,92,-99.99,,,0.39,weatherlink.com 1.10,2013-03-19 00:59:00,
2013-03-18 21:14:00,40.6,39.0,29.96,East,95,0.0,-999.0,92,-99.99,,,0.39,weatherlink.com 1.10,2013-03-19 01:14:00,
2013-03-18 21:29:00,40.4,38.0,29.91,East,79,6.0,-999.0,92,-99.99,,,0.40,weatherlink.com 1.10,2013-03-19 01:29:00,
2013-03-18 21:44:00,40.4,38.0,29.92,SSE,164,2.0,-999.0,92,-99.99,,,0.40,weatherlink.com 1.10,2013-03-19 01:44:00,
2013-03-18 21:59:00,40.4,38.0,29.91,East,92,0.0,-999.0,92,-99.99,,,0.40,weatherlink.com 1.10,2013-03-19 01:59:00,
2013-03-18 22:14:00,40.5,38.0,29.93,ENE,63,0.0,-999.0,92,-99.99,,,0.40,weatherlink.com 1.10,2013-03-19 02:14:00,
2013-03-18 22:29:00,40.7,39.0,29.93,WSW,248,0.0,-999.0,92,-99.99,,,0.40,weatherlink.com 1.10,2013-03-19 02:29:00,
2013-03-18 22:44:00,40.6,39.0,29.93,North,9,1.0,-999.0,92,-99.99,,,0.40,weatherlink.com 1.10,2013-03-19 02:44:00,
2013-03-18 23:00:00,40.5,38.0,29.94,NNW,338,1.0,-999.0,92,-99.99,,,0.40,weatherlink.com 1.10,2013-03-19 03:00:00,
2013-03-18 23:15:00,40.4,38.0,29.95,NW,321,0.0,-999.0,92,-99.99,,,0.40,weatherlink.com 1.10,2013-03-19 03:15:00,
2013-03-18 23:30:00,40.4,38.0,29.94,NW,321,0.0,-999.0,92,-99.99,,,0.40,weatherlink.com 1.10,2013-03-19 03:30:00,
2013-03-18 23:45:00,40.4,38.0,29.93,NW,321,0.0,-999.0,92,-99.99,,,0.40,weatherlink.com 1.10,2013-03-19 03:45:00,